QPF
0.00 0.00 0.00 0.00 0.00 0.00 0.00 0.00 0.00 0.00 0.00 0.00 0.00 0.00 0.00 0.00 0.00 0.00 0.00 0.00 0.00 0.00 0.00 0.00 0.00 0.00 0.00 0.00 0.00 0.00 0.01 0.03 0.03 0.00 0.00 0.00 0.01 0.01 0.01 0.02 0.03 0.04 0.04
0.00 0.00 0.00 0.00 0.00 0.00 0.00 0.00 0.00 0.00 0.00 0.00 0.00 0.00 0.00 0.00 0.00 0.00 0.00 0.00 0.00 0.00 0.00 0.00 0.00 0.00 0.00 0.00 0.00 0.00 0.00 0.01 0.02 0.01 0.00 0.00 0.00 0.01 0.01 0.01 0.01 0.03 0.03
0.00 0.00 0.00 0.00 0.00 0.00 0.00 0.00 0.00 0.00 0.00 0.00 0.00 0.00 0.00 0.00 0.00 0.00 0.00 0.00 0.00 0.00 0.00 0.00 0.00 0.00 0.00 0.00 0.00 0.00 0.00 0.00 0.01 0.02 0.01 0.00 0.00 0.01 0.01 0.01 0.01 0.02 0.02
0.00 0.00 0.00 0.00 0.00 0.00 0.00 0.00 0.00 0.00 0.00 0.00 0.00 0.00 0.00 0.00 0.00 0.00 0.00 0.00 0.00 0.00 0.00 0.00 0.00 0.00 0.00 0.00 0.00 0.00 0.00 0.00 0.01 0.01 0.01 0.00 0.00 0.01 0.02 0.02 0.02 0.01 0.01
0.00 0.00 0.00 0.00 0.00 0.00 0.00 0.00 0.00 0.00 0.00 0.00 0.00 0.00 0.00 0.00 0.00 0.00 0.00 0.00 0.00 0.00 0.00 0.00 0.00 0.00 0.00 0.00 0.00 0.00 0.00 0.00 0.01 0.01 0.01 0.01 0.01 0.01 0.02 0.03 0.03 0.02 0.01
0.00 0.00 0.00 0.00 0.00 0.00 0.00 0.00 0.00 0.00 0.00 0.00 0.00 0.00 0.00 0.00 0.00 0.00 0.00 0.00 0.00 0.00 0.00 0.00 0.00 0.00 0.00 0.00 0.00 0.00 0.01 0.01 0.01 0.01 0.01 0.01 0.01 0.01 0.02 0.04 0.04 0.04 0.03
0.00 0.00 0.00 0.00 0.00 0.00 0.00 0.00 0.00 0.00 0.00 0.00 0.00 0.00 0.00 0.00 0.00 0.00 0.00 0.00 0.00 0.00 0.00 0.00 0.00 0.00 0.00 0.00 0.00 0.00 0.01 0.01 0.01 0.01 0.01 0.01 0.01 0.02 0.03 0.03 0.03 0.03 0.03
0.00 0.00 0.00 0.00 0.00 0.00 0.00 0.00 0.00 0.00 0.00 0.00 0.00 0.00 0.00 0.00 0.00 0.00 0.00 0.00 0.00 0.00 0.00 0.00 0.00 0.00 0.00 0.01 0.01 0.01 0.00 0.00 0.00 0.01 0.01 0.02 0.03 0.02 0.02 0.03 0.03 0.03 0.02
0.00 0.00 0.00 0.00 0.00 0.00 0.00 0.00 0.00 0.00 0.00 0.00 0.00 0.00 0.00 0.00 0.00 0.00 0.00 0.00 0.00 0.00 0.00 0.00 0.00 0.00 0.00 0.01 0.02 0.01 0.01 0.00 0.00 0.01 0.02 0.03 0.03 0.02 0.02 0.05 0.08 0.09 0.07
0.00 0.00 0.00 0.00 0.00 0.00 0.00 0.00 0.00 0.00 0.00 0.00 0.00 0.00 0.00 0.00 0.00 0.00 0.00 0.00 0.01 0.01 0.01 0.00 0.00 0.01 0.01 0.02 0.02 0.02 0.02 0.01 0.01 0.01 0.01 0.01 0.00 0.01 0.02 0.06 0.12 0.15 0.13
0.00 0.00 0.00 0.00 0.00 0.00 0.00 0.00 0.00 0.00 0.00 0.00 0.00 0.00 0.00 0.00 0.00 0.00 0.01 0.01 0.02 0.02 0.01 0.01 0.00 0.01 0.01 0.02 0.02 0.02 0.03 0.03 0.03 0.01 0.00 0.00 0.01 0.01 0.02 0.03 0.05 0.10 0.13
0.00 0.00 0.00 0.00 0.00 0.00 0.00 0.00 0.00 0.00 0.00 0.00 0.00 0.00 0.00 0.00 0.00 0.00 0.01 0.02 0.03 0.02 0.02 0.01 0.01 0.02 0.01 0.01 0.01 0.01 0.02 0.02 0.01 0.01 0.01 0.01 0.01 0.01 0.01 0.02 0.03 0.05 0.09
0.00 0.00 0.00 0.00 0.00 0.00 0.00 0.00 0.00 0.00 0.00 0.00 0.00 0.00 0.00 0.00 0.00 0.00 0.01 0.02 0.03 0.02 0.02 0.02 0.02 0.01 0.01 0.00 0.00 0.01 0.01 0.01 0.03 0.04 0.04 0.02 0.01 0.02 0.02 0.04 0.06 0.08 0.10
0.00 0.00 0.00 0.00 0.00 0.00 0.00 0.00 0.00 0.00 0.00 0.00 0.00 0.00 0.00 0.00 0.00 0.00 0.01 0.02 0.02 0.03 0.03 0.03 0.01 0.00 0.00 0.00 0.00 0.00 0.00 0.01 0.05 0.08 0.06 0.03 0.02 0.03 0.05 0.09 0.13 0.14 0.16
0.00 0.00 0.00 0.00 0.00 0.00 0.00 0.00 0.00 0.00 0.00 0.00 0.00 0.01 0.01 0.01 0.01 0.03 0.03 0.03 0.04 0.04 0.03 0.01 0.00 0.00 0.00 0.00 0.00 0.00 0.00 0.01 0.02 0.04 0.05 0.04 0.03 0.04 0.07 0.12 0.17 0.20 0.21
0.00 0.00 0.00 0.00 0.00 0.00 0.00 0.00 0.00 0.00 0.00 0.00 0.00 0.01 0.01 0.01 0.02 0.03 0.03 0.04 0.04 0.03 0.01 0.00 0.00 0.00 0.01 0.01 0.01 0.01 0.01 0.01 0.03 0.05 0.06 0.06 0.07 0.08 0.10 0.14 0.19 0.22 0.23
0.00 0.00 0.00 0.00 0.00 0.00 0.00 0.00 0.00 0.00 0.00 0.00 0.00 0.00 0.01 0.01 0.02 0.02 0.03 0.04 0.02 0.01 0.01 0.01 0.01 0.01 0.01 0.01 0.01 0.01 0.01 0.02 0.05 0.08 0.10 0.10 0.11 0.11 0.14 0.17 0.21 0.23 0.23
0.00 0.00 0.00 0.00 0.00 0.00 0.00 0.00 0.00 0.00 0.00 0.00 0.00 0.00 0.01 0.01 0.01 0.02 0.03 0.02 0.00 0.00 0.01 0.01 0.01 0.01 0.01 0.01 0.02 0.02 0.03 0.04 0.07 0.11 0.13 0.14 0.15 0.16 0.18 0.21 0.23 0.22 0.20
0.00 0.00 0.00 0.00 0.00 0.00 0.00 0.00 0.00 0.00 0.00 0.00 0.00 0.00 0.00 0.00 0.01 0.01 0.01 0.00 0.01 0.01 0.01 0.01 0.00 0.01 0.01 0.01 0.02 0.02 0.05 0.09 0.12 0.16 0.18 0.19 0.20 0.21 0.23 0.24 0.21 0.17 0.10
0.00 0.00 0.00 0.00 0.00 0.00 0.00 0.00 0.00 0.00 0.01 0.00 0.00 0.00 0.00 0.01 0.01 0.00 0.00 0.00 0.01 0.01 0.01 0.01 0.01 0.01 0.01 0.01 0.02 0.04 0.08 0.11 0.15 0.18 0.22 0.24 0.25 0.25 0.23 0.18 0.11 0.05 0.02
0.00 0.00 0.00 0.00 0.00 0.00 0.00 0.00 0.01 0.01 0.01 0.01 0.00 0.00 0.01 0.02 0.01 0.00 0.00 0.01 0.01 0.01 0.01 0.01 0.01 0.01 0.01 0.02 0.03 0.06 0.10 0.14 0.18 0.22 0.25 0.25 0.22 0.16 0.10 0.05 0.02 0.01 0.00
0.00 0.00 0.00 0.00 0.00 0.00 0.00 0.01 0.01 0.01 0.01 0.01 0.00 0.00 0.01 0.00 0.00 0.00 0.00 0.00 0.00 0.00 0.00 0.01 0.01 0.01 0.01 0.03 0.08 0.11 0.13 0.16 0.20 0.23 0.22 0.17 0.09 0.04 0.01 0.00 0.00 0.00 0.00
0.00 0.00 0.00 0.00 0.00 0.00 0.00 0.00 0.00 0.01 0.01 0.01 0.01 0.01 0.00 0.00 0.00 0.00 0.00 0.00 0.00 0.00 0.00 0.00 0.01 0.01 0.01 0.04 0.10 0.17 0.21 0.22 0.22 0.21 0.14 0.06 0.02 0.00 0.00 0.00 0.00 0.00 0.00
0.00 0.00 0.00 0.00 0.00 0.00 0.00 0.00 0.00 0.00 0.00 0.00 0.00 0.00 0.00 0.00 0.00 0.00 0.00 0.00 0.00 0.00 0.00 0.00 0.00 0.00 0.02 0.06 0.12 0.18 0.22 0.23 0.20 0.12 0.05 0.01 0.00 0.00 0.00 0.00 0.00 0.00 0.00
0.00 0.00 0.00 0.00 0.00 0.00 0.00 0.00 0.00 0.00 0.00 0.00 0.00 0.00 0.01 0.01 0.01 0.00 0.00 0.00 0.00 0.00 0.00 0.00 0.00 0.01 0.04 0.09 0.15 0.19 0.21 0.18 0.10 0.04 0.01 0.00 0.00 0.00 0.00 0.00 0.00 0.00 0.00
0.00 0.00 0.00 0.00 0.00 0.00 0.00 0.00 0.00 0.00 0.01 0.01 0.01 0.01 0.01 0.01 0.01 0.00 0.00 0.00 0.00 0.00 0.00 0.00 0.00 0.02 0.06 0.12 0.16 0.19 0.16 0.09 0.03 0.00 0.00 0.00 0.00 0.00 0.00 0.00 0.00 0.00 0.00
MSLP
1016.74 1016.82 1016.85 1016.82 1016.72 1016.55 1016.33 1016.07 1015.78 1015.46 1015.11 1014.72 1014.29 1013.79 1013.24 1012.63 1011.97 1011.30 1010.63 1009.99 1009.39 1008.84 1008.31 1007.79 1007.23 1006.62 1005.93 1005.15 1004.29 1003.37 1002.43 1001.49 1000.59 999.74 998.94 998.20 997.47 996.75 996.02 995.25 994.47 993.69 992.92
1017.07 1017.11 1017.10 1017.04 1016.93 1016.75 1016.53 1016.26 1015.96 1015.63 1015.27 1014.87 1014.41 1013.89 1013.30 1012.66 1011.98 1011.27 1010.57 1009.89 1009.25 1008.65 1008.08 1007.52 1006.95 1006.33 1005.65 1004.90 1004.09 1003.23 1002.35 1001.47 1000.61 999.78 998.97 998.19 997.40 996.59 995.75 994.88 993.99 993.11 992.26
1017.33 1017.34 1017.31 1017.23 1017.09 1016.91 1016.67 1016.39 1016.08 1015.73 1015.34 1014.91 1014.43 1013.88 1013.27 1012.61 1011.91 1011.18 1010.46 1009.75 1009.08 1008.44 1007.82 1007.22 1006.61 1005.97 1005.28 1004.55 1003.77 1002.96 1002.12 1001.29 1000.46 999.64 998.83 998.01 997.16 996.29 995.37 994.41 993.44 992.48 991.56
1017.55 1017.54 1017.49 1017.39 1017.24 1017.03 1016.77 1016.47 1016.12 1015.74 1015.32 1014.86 1014.34 1013.77 1013.15 1012.48 1011.77 1011.04 1010.30 1009.57 1008.87 1008.19 1007.53 1006.88 1006.23 1005.55 1004.85 1004.11 1003.33 1002.54 1001.72 1000.91 1000.09 999.27 998.45 997.60 996.71 995.78 994.81 993.81 992.78 991.78 990.82
1017.74 1017.72 1017.65 1017.54 1017.36 1017.13 1016.84 1016.50 1016.12 1015.69 1015.23 1014.72 1014.17 1013.58 1012.94 1012.27 1011.56 1010.83 1010.09 1009.36 1008.64 1007.93 1007.23 1006.53 1005.83 1005.11 1004.36 1003.59 1002.79 1001.99 1001.17 1000.34 999.51 998.68 997.83 996.95 996.04 995.08 994.09 993.06 992.02 991.00 990.04
1017.93 1017.90 1017.82 1017.68 1017.48 1017.22 1016.89 1016.51 1016.08 1015.61 1015.09 1014.54 1013.96 1013.34 1012.69 1012.01 1011.30 1010.58 1009.85 1009.11 1008.37 1007.64 1006.90 1006.16 1005.40 1004.63 1003.84 1003.02 1002.18 1001.34 1000.49 999.63 998.77 997.91 997.03 996.13 995.20 994.23 993.23 992.21 991.19 990.19 989.24
1018.12 1018.07 1017.97 1017.81 1017.58 1017.28 1016.92 1016.50 1016.02 1015.50 1014.94 1014.35 1013.74 1013.09 1012.42 1011.73 1011.02 1010.30 1009.56 1008.82 1008.07 1007.31 1006.55 1005.76 1004.96 1004.14 1003.29 1002.42 1001.54 1000.65 999.75 998.85 997.95 997.05 996.14 995.22 994.28 993.31 992.33 991.35 990.36 989.41 988.49
1018.30 1018.23 1018.10 1017.91 1017.65 1017.32 1016.92 1016.46 1015.95 1015.39 1014.80 1014.18 1013.53 1012.86 1012.16 1011.46 1010.73 1010.00 1009.25 1008.49 1007.72 1006.94 1006.14 1005.33 1004.49 1003.63 1002.74 1001.83 1000.90 999.97 999.02 998.08 997.13 996.19 995.25 994.31 993.37 992.42 991.47 990.53 989.60 988.69 987.83
1018.45 1018.35 1018.19 1017.96 1017.66 1017.30 1016.87 1016.39 1015.86 1015.28 1014.67 1014.02 1013.34 1012.64 1011.93 1011.19 1010.44 1009.67 1008.90 1008.12 1007.32 1006.52 1005.70 1004.86 1004.00 1003.11 1002.20 1001.27 1000.31 999.34 998.36 997.38 996.39 995.42 994.45 993.49 992.54 991.61 990.69 989.80 988.93 988.08 987.28
1018.54 1018.40 1018.20 1017.93 1017.60 1017.21 1016.77 1016.27 1015.73 1015.15 1014.52 1013.86 1013.17 1012.44 1011.69 1010.92 1010.13 1009.32 1008.51 1007.69 1006.87 1006.04 1005.20 1004.35 1003.49 1002.60 1001.69 1000.75 999.79 998.80 997.80 996.79 995.77 994.76 993.77 992.79 991.84 990.92 990.02 989.17 988.35 987.57 986.83
1018.56 1018.37 1018.12 1017.81 1017.45 1017.04 1016.58 1016.08 1015.55 1014.96 1014.34 1013.67 1012.97 1012.22 1011.43 1010.62 1009.78 1008.93 1008.08 1007.22 1006.37 1005.53 1004.68 1003.84 1002.99 1002.12 1001.23 1000.31 999.35 998.36 997.35 996.32 995.27 994.23 993.20 992.20 991.23 990.31 989.44 988.61 987.84 987.12 986.43
1018.50 1018.25 1017.95 1017.59 1017.20 1016.77 1016.30 1015.81 1015.27 1014.70 1014.08 1013.42 1012.70 1011.93 1011.11 1010.26 1009.39 1008.50 1007.61 1006.72 1005.85 1005.00 1004.17 1003.35 1002.52 1001.69 1000.83 999.93 998.99 998.01 996.99 995.94 994.86 993.78 992.72 991.68 990.70 989.76 988.90 988.10 987.36 986.69 986.08
1018.37 1018.06 1017.70 1017.30 1016.87 1016.42 1015.94 1015.44 1014.91 1014.34 1013.73 1013.06 1012.33 1011.55 1010.72 1009.84 1008.93 1008.02 1007.11 1006.22 1005.35 1004.51 1003.70 1002.91 1002.12 1001.33 1000.50 999.63 998.71 997.73 996.69 995.61 994.50 993.38 992.27 991.20 990.18 989.23 988.37 987.59 986.90 986.28 985.74
1018.18 1017.82 1017.40 1016.96 1016.49 1016.00 1015.51 1015.00 1014.46 1013.89 1013.27 1012.60 1011.87 1011.08 1010.23 1009.35 1008.44 1007.52 1006.62 1005.74 1004.89 1004.09 1003.31 1002.56 1001.82 1001.05 1000.26 999.40 998.48 997.49 996.43 995.31 994.15 992.98 991.82 990.71 989.66 988.70 987.84 987.09 986.45 985.90 985.45
1017.95 1017.54 1017.08 1016.58 1016.08 1015.56 1015.03 1014.50 1013.95 1013.36 1012.74 1012.06 1011.32 1010.53 1009.69 1008.82 1007.93 1007.04 1006.16 1005.33 1004.53 1003.77 1003.04 1002.33 1001.61 1000.88 1000.09 999.23 998.29 997.26 996.16 994.99 993.78 992.56 991.36 990.22 989.15 988.20 987.36 986.66 986.07 985.61 985.25
1017.70 1017.25 1016.74 1016.21 1015.66 1015.11 1014.55 1013.98 1013.40 1012.80 1012.15 1011.47 1010.73 1009.95 1009.13 1008.29 1007.44 1006.61 1005.79 1005.01 1004.27 1003.57 1002.89 1002.21 1001.51 1000.77 999.97 999.08 998.10 997.03 995.87 994.65 993.39 992.13 990.91 989.75 988.70 987.78 986.99 986.35 985.85 985.48 985.23
1017.42 1016.93 1016.39 1015.83 1015.25 1014.67 1014.08 1013.48 1012.87 1012.24 1011.58 1010.88 1010.15 1009.39 1008.61 1007.81 1007.03 1006.26 1005.52 1004.81 1004.13 1003.48 1002.83 1002.17 1001.47 1000.71 999.87 998.93 997.89 996.76 995.55 994.28 992.99 991.72 990.50 989.38 988.37 987.50 986.79 986.24 985.83 985.57 985.42
1017.09 1016.58 1016.03 1015.45 1014.86 1014.25 1013.64 1013.02 1012.38 1011.73 1011.05 1010.35 1009.63 1008.89 1008.15 1007.42 1006.70 1006.00 1005.34 1004.70 1004.08 1003.47 1002.84 1002.17 1001.45 1000.64 999.74 998.74 997.64 996.45 995.20 993.91 992.62 991.36 990.19 989.13 988.20 987.43 986.82 986.37 986.07 985.90 985.85
1016.69 1016.18 1015.63 1015.05 1014.46 1013.85 1013.23 1012.59 1011.94 1011.28 1010.59 1009.90 1009.19 1008.49 1007.79 1007.12 1006.46 1005.84 1005.24 1004.65 1004.07 1003.47 1002.84 1002.14 1001.38 1000.51 999.55 998.48 997.32 996.09 994.81 993.53 992.28 991.09 990.00 989.04 988.23 987.58 987.09 986.75 986.55 986.46 986.48
1016.21 1015.71 1015.18 1014.62 1014.05 1013.46 1012.85 1012.22 1011.57 1010.90 1010.22 1009.54 1008.85 1008.18 1007.53 1006.90 1006.30 1005.72 1005.17 1004.61 1004.04 1003.44 1002.78 1002.04 1001.20 1000.27 999.24 998.11 996.91 995.67 994.41 993.18 992.00 990.91 989.94 989.12 988.45 987.93 987.56 987.32 987.20 987.17 987.22
1015.66 1015.18 1014.68 1014.16 1013.63 1013.07 1012.48 1011.87 1011.24 1010.59 1009.92 1009.25 1008.59 1007.95 1007.33 1006.74 1006.17 1005.63 1005.09 1004.54 1003.95 1003.31 1002.60 1001.80 1000.90 999.90 998.82 997.65 996.44 995.22 994.01 992.85 991.78 990.83 990.01 989.33 988.81 988.42 988.16 988.00 987.93 987.92 987.96
1015.04 1014.60 1014.15 1013.68 1013.19 1012.68 1012.13 1011.56 1010.95 1010.32 1009.68 1009.03 1008.39 1007.77 1007.17 1006.60 1006.05 1005.50 1004.96 1004.38 1003.76 1003.07 1002.30 1001.43 1000.47 999.42 998.29 997.12 995.92 994.75 993.62 992.57 991.64 990.83 990.17 989.64 989.25 988.97 988.79 988.69 988.63 988.61 988.60
1014.42 1014.02 1013.62 1013.20 1012.76 1012.30 1011.80 1011.25 1010.68 1010.07 1009.45 1008.83 1008.21 1007.60 1007.01 1006.44 1005.89 1005.33 1004.75 1004.14 1003.46 1002.71 1001.88 1000.95 999.94 998.85 997.71 996.55 995.41 994.31 993.28 992.37 991.57 990.91 990.39 990.00 989.72 989.52 989.39 989.30 989.22 989.14 989.05
1013.83 1013.47 1013.11 1012.75 1012.35 1011.93 1011.47 1010.96 1010.41 1009.83 1009.24 1008.63 1008.02 1007.42 1006.84 1006.26 1005.69 1005.10 1004.48 1003.82 1003.09 1002.28 1001.39 1000.41 999.37 998.27 997.14 996.03 994.95 993.94 993.03 992.25 991.59 991.06 990.66 990.38 990.17 990.02 989.90 989.79 989.66 989.51 989.33
1013.31 1012.99 1012.67 1012.33 1011.97 1011.58 1011.14 1010.66 1010.13 1009.58 1009.00 1008.41 1007.81 1007.22 1006.63 1006.04 1005.44 1004.83 1004.17 1003.46 1002.67 1001.82 1000.89 999.88 998.83 997.74 996.65 995.60 994.60 993.70 992.90 992.23 991.70 991.28 990.97 990.75 990.58 990.45 990.31 990.16 989.97 989.75 989.49
1012.88 1012.57 1012.27 1011.95 1011.61 1011.23 1010.81 1010.34 1009.83 1009.29 1008.73 1008.15 1007.57 1006.98 1006.39 1005.79 1005.18 1004.53 1003.84 1003.09 1002.27 1001.39 1000.43 999.43 998.38 997.33 996.29 995.31 994.40 993.60 992.91 992.34 991.90 991.56 991.31 991.12 990.97 990.82 990.66 990.46 990.22 989.93 989.61
Thickness
5581 5576 5570 5565 5559 5554 5549 5543 5537 5531 5526 5520 5514 5509 5504 5498 5491 5486 5479 5473 5466 5460 5453 5448 5444 5440 5437 5434 5431 5429 5427 5423 5423 5442 5452 5457 5459 5463 5469 5473 5478 5485 5495
5567 5561 5555 5549 5544 5538 5532 5527 5521 5515 5509 5502 5497 5490 5484 5477 5469 5462 5456 5447 5440 5435 5430 5424 5420 5417 5414 5412 5412 5412 5412 5409 5404 5410 5429 5436 5440 5442 5448 5455 5463 5470 5478
5553 5547 5540 5534 5528 5522 5516 5511 5505 5499 5492 5485 5478 5470 5462 5454 5445 5437 5429 5422 5416 5411 5407 5402 5398 5396 5396 5395 5394 5395 5395 5394 5389 5388 5403 5415 5422 5426 5428 5437 5445 5453 5462
5539 5532 5525 5518 5512 5506 5500 5495 5488 5481 5473 5465 5455 5445 5436 5427 5419 5411 5405 5401 5397 5392 5387 5382 5379 5376 5375 5376 5378 5378 5375 5374 5374 5373 5380 5391 5400 5407 5408 5416 5428 5437 5445
5525 5517 5509 5502 5496 5490 5484 5477 5469 5460 5451 5441 5432 5422 5411 5402 5395 5387 5384 5382 5378 5375 5371 5365 5360 5357 5355 5353 5353 5353 5351 5351 5353 5356 5361 5367 5376 5382 5386 5394 5405 5421 5432
5509 5501 5494 5488 5481 5474 5466 5458 5449 5440 5430 5419 5409 5399 5390 5381 5374 5369 5363 5360 5357 5352 5348 5345 5340 5336 5331 5329 5325 5325 5325 5324 5326 5330 5336 5342 5351 5357 5364 5373 5383 5397 5417
5493 5486 5479 5472 5464 5455 5447 5438 5429 5419 5409 5398 5388 5378 5371 5363 5357 5352 5345 5338 5333 5326 5321 5316 5313 5309 5301 5297 5299 5300 5300 5300 5301 5304 5312 5321 5328 5337 5343 5353 5362 5374 5393
5477 5469 5462 5454 5446 5437 5427 5417 5407 5398 5387 5378 5369 5361 5354 5348 5340 5333 5324 5318 5310 5304 5298 5291 5285 5282 5277 5273 5273 5276 5279 5283 5285 5291 5298 5305 5312 5320 5326 5335 5346 5362 5380
5460 5452 5444 5436 5428 5418 5407 5396 5387 5378 5369 5361 5354 5345 5338 5331 5322 5312 5303 5296 5292 5288 5283 5276 5268 5264 5262 5256 5254 5256 5263 5270 5277 5282 5288 5294 5301 5308 5315 5323 5336 5348 5367
5444 5435 5427 5418 5409 5398 5387 5376 5367 5358 5352 5346 5341 5330 5319 5310 5303 5294 5284 5278 5277 5276 5274 5268 5260 5254 5251 5248 5245 5246 5250 5258 5267 5276 5282 5286 5291 5299 5307 5314 5323 5334 5349
5428 5419 5410 5400 5389 5379 5368 5358 5349 5343 5338 5332 5327 5320 5306 5295 5288 5280 5273 5266 5262 5263 5262 5259 5254 5249 5246 5244 5241 5239 5241 5250 5258 5264 5272 5281 5289 5296 5303 5310 5316 5323 5336
5412 5403 5393 5381 5370 5362 5351 5343 5334 5326 5321 5315 5310 5306 5297 5284 5274 5268 5264 5259 5254 5251 5250 5248 5245 5243 5242 5239 5237 5237 5241 5246 5249 5256 5266 5277 5287 5295 5302 5310 5317 5323 5329
5396 5386 5375 5366 5354 5344 5335 5328 5321 5313 5305 5299 5294 5290 5285 5276 5266 5260 5255 5252 5249 5246 5244 5243 5240 5237 5235 5234 5233 5235 5237 5239 5244 5253 5264 5274 5284 5294 5304 5312 5319 5324 5328
5380 5369 5360 5351 5343 5333 5324 5315 5307 5299 5292 5287 5281 5276 5271 5264 5256 5251 5247 5244 5243 5240 5238 5238 5235 5231 5228 5227 5229 5230 5232 5236 5243 5252 5263 5274 5285 5296 5305 5312 5319 5324 5328
5364 5355 5346 5338 5329 5323 5316 5305 5297 5291 5280 5274 5268 5260 5253 5251 5245 5241 5237 5236 5234 5233 5234 5233 5230 5228 5226 5227 5228 5230 5233 5239 5246 5255 5264 5275 5288 5299 5306 5312 5318 5323 5327
5350 5342 5333 5325 5317 5311 5305 5303 5296 5286 5279 5268 5257 5249 5243 5238 5235 5232 5229 5228 5227 5226 5225 5223 5222 5220 5220 5222 5226 5231 5236 5242 5250 5258 5267 5276 5288 5299 5306 5313 5318 5322 5324
5334 5326 5319 5311 5304 5298 5293 5291 5292 5288 5276 5264 5252 5243 5237 5232 5228 5224 5222 5221 5218 5216 5214 5214 5214 5215 5217 5220 5224 5231 5239 5246 5253 5260 5268 5279 5289 5299 5306 5313 5318 5320 5320
5319 5312 5306 5298 5293 5289 5285 5280 5274 5270 5267 5259 5247 5238 5232 5227 5222 5218 5215 5213 5210 5209 5208 5208 5210 5213 5216 5221 5227 5235 5243 5251 5257 5263 5271 5282 5292 5300 5308 5313 5316 5317 5317
5305 5299 5294 5290 5285 5280 5274 5269 5262 5256 5250 5245 5239 5233 5226 5221 5217 5212 5208 5202 5202 5204 5205 5206 5209 5213 5218 5225 5232 5239 5246 5253 5260 5266 5276 5286 5294 5301 5307 5312 5314 5317 5317
5293 5289 5285 5281 5276 5270 5263 5257 5251 5245 5239 5233 5228 5223 5219 5214 5210 5207 5202 5200 5199 5201 5203 5206 5210 5216 5223 5230 5238 5244 5251 5257 5264 5272 5281 5289 5295 5300 5305 5308 5311 5313 5314
5283 5279 5276 5270 5264 5258 5252 5246 5240 5234 5228 5222 5218 5214 5211 5207 5203 5200 5199 5199 5199 5200 5203 5207 5213 5221 5229 5236 5243 5249 5255 5262 5269 5278 5287 5292 5296 5300 5303 5305 5307 5308 5308
5273 5269 5265 5260 5255 5249 5242 5236 5229 5222 5216 5212 5210 5207 5205 5201 5199 5198 5198 5198 5199 5200 5204 5209 5217 5226 5234 5241 5248 5254 5262 5270 5278 5286 5292 5295 5297 5300 5301 5302 5303 5303 5303
5264 5260 5255 5250 5244 5239 5232 5223 5216 5210 5206 5203 5201 5200 5198 5197 5196 5196 5197 5199 5200 5203 5208 5214 5223 5233 5241 5247 5253 5261 5269 5278 5285 5292 5295 5296 5297 5297 5297 5297 5297 5298 5298
5254 5249 5245 5240 5233 5226 5218 5211 5204 5199 5196 5194 5193 5191 5191 5192 5193 5195 5197 5199 5202 5207 5213 5221 5231 5240 5248 5256 5264 5272 5280 5288 5294 5296 5296 5295 5295 5295 5295 5293 5293 5293 5293
5244 5238 5233 5227 5219 5211 5203 5197 5192 5189 5186 5185 5185 5185 5186 5187 5191 5195 5198 5201 5206 5212 5221 5230 5239 5248 5256 5265 5274 5283 5291 5298 5301 5300 5297 5296 5294 5293 5292 5291 5290 5289 5289
5233 5227 5221 5213 5205 5196 5189 5185 5182 5180 5178 5178 5178 5178 5180 5184 5189 5194 5199 5204 5210 5218 5228 5238 5248 5256 5265 5276 5285 5293 5301 5304 5305 5303 5300 5298 5296 5295 5293 5292 5292 5292 5292